DW3800 Weather Reports


time (UTC)temp
C
wind
direction
speed
KPH
gust
KPH
rain 1hr
cm
rain 24hr
cm
rain mn
cm
humidity
%
barometer
mb
20260504050721 13 147 1.6 3.2 0.00 0.00 0.00 44 1004.2
20260504050218 13 110 0.0 3.2 0.00 0.00 0.00 44 1004.4
20260504045715 14 162 3.2 8.0 0.00 0.00 0.00 43 1004.4
20260504045215 14 125 3.2 8.0 0.00 0.00 0.00 43 1004.5
20260504044714 14 121 0.0 1.6 0.00 0.00 0.00 44 1004.5
20260504044211 14 162 1.6 3.2 0.00 0.00 0.00 43 1004.7
20260504043708 13 130 1.6 3.2 0.00 0.00 0.00 43 1004.9
20260504043204 13 125 0.0 3.2 0.00 0.00 0.00 44 1004.7
20260504042702 13 139 0.0 1.6 0.00 0.00 0.00 44 1004.7
20260504042158 13 122 1.6 4.8 0.00 0.00 0.00 44 1004.9
20260504041654 13 207 0.0 1.6 0.00 0.00 0.00 44 1005.2
20260504041150 14 167 0.0 1.6 0.00 0.00 0.00 43 1005.2
20260504040647 14 236 0.0 1.6 0.00 0.00 0.00 42 1005.2
20260504040144 14 159 6.4 9.7 0.00 0.00 0.00 44 1005.5
20260504035641 13 188 0.0 1.6 0.00 0.00 0.00 42 1005.7
20260504035138 13 181 0.0 0.0 0.00 0.00 0.00 43 1005.7
20260504034635 14 205 0.0 1.6 0.00 0.00 0.00 42 1005.9
20260504034132 13 165 0.0 1.6 0.00 0.00 0.00 43 1005.9
20260504033630 13 214 0.0 0.0 0.00 0.00 0.00 43 1006.0
20260504033127 13 244 0.0 1.6 0.00 0.00 0.00 42 1006.3
20260504032624 13 270 0.0 1.6 0.00 0.00 0.00 42 1006.2
20260504032121 13 213 0.0 0.0 0.00 0.00 0.00 42 1006.2
20260504031618 13 275 0.0 0.0 0.00 0.00 0.00 42 1006.4
20260504031114 13 275 0.0 0.0 0.00 0.00 0.00 42 1006.3
20260504030611 14 275 0.0 0.0 0.00 0.00 0.00 42 1006.4
20260504030108 14 275 0.0 0.0 0.00 0.00 0.00 41 1006.4
20260504025605 14 275 0.0 1.6 0.00 0.00 0.00 40 1006.4
20260504025101 14 262 0.0 1.6 0.00 0.00 0.00 41 1006.4
20260504024559 14 225 0.0 0.0 0.00 0.00 0.00 41 1006.4
20260504024055 14 188 0.0 1.6 0.00 0.00 0.00 40 1006.7
20260504023552 15 214 0.0 0.0 0.00 0.00 0.00 40 1006.6
20260504023048 15 204 0.0 1.6 0.00 0.00 0.00 39 1006.4
20260504022544 15 224 0.0 3.2 0.00 0.00 0.00 39 1006.6
20260504022040 15 141 0.0 0.0 0.00 0.00 0.00 38 1006.4
20260504021538 15 200 0.0 0.0 0.00 0.00 0.00 39 1006.4
20260504021035 15 194 0.0 0.0 0.00 0.00 0.00 39 1006.5
20260504020532 15 165 0.0 0.0 0.00 0.00 0.00 40 1006.4
20260504020028 16 210 0.0 0.0 0.00 0.00 0.00 39 1006.7
20260504015524 16 204 0.0 0.0 0.00 0.00 0.00 39 1006.6
20260504015020 17 185 0.0 1.6 0.00 0.00 0.00 37 1006.6
20260504014517 17 177 1.6 4.8 0.00 0.00 0.00 35 1006.6
20260504014014 17 179 3.2 4.8 0.00 0.00 0.00 34 1006.5
20260504013512 17 192 3.2 4.8 0.00 0.00 0.00 34 1006.6
20260504013009 17 222 4.8 8.0 0.00 0.00 0.00 34 1006.7
20260504012506 17 196 1.6 8.0 0.00 0.00 0.00 34 1006.6
20260504012004 18 219 1.6 8.0 0.00 0.00 0.00 34 1006.8
20260504011500 18 212 8.0 9.7 0.00 0.00 0.00 33 1006.5
20260504010955 18 215 3.2 9.7 0.00 0.00 0.00 33 1006.6
20260504010452 18 232 1.6 3.2 0.00 0.00 0.00 34 1006.7
20260504005948 18 182 1.6 8.0 0.00 0.00 0.00 33 1006.6
20260504005445 18 190 3.2 8.0 0.00 0.00 0.00 32 1006.7
20260504004943 19 183 3.2 8.0 0.00 0.00 0.00 31 1006.6
20260504004440 19 199 4.8 9.7 0.00 0.00 0.00 31 1006.7
20260504003937 18 217 4.8 11.3 0.00 0.00 0.00 32 1006.8
20260504003433 19 176 1.6 9.7 0.00 0.00 0.00 32 1006.7
20260504002930 20 216 3.2 4.8 0.00 0.00 0.00 31 1006.7
20260504002427 19 215 0.0 4.8 0.00 0.00 0.00 31 1006.8
20260504001924 19 205 3.2 9.7 0.00 0.00 0.00 30 1006.8
20260504001422 19 241 4.8 12.9 0.00 0.00 0.00 30 1006.7
20260504000918 20 224 3.2 9.7 0.00 0.00 0.00 29 1007.0
20260504000416 19 205 4.8 9.7 0.00 0.00 0.00 29 1007.1
20260503235913 20 204 12.9 14.5 0.00 0.00 0.00 28 1007.0
20260503235410 20 190 6.4 12.9 0.00 0.00 0.00 28 1007.1
20260503234908 20 161 3.2 16.1 0.00 0.00 0.00 27 1007.0
20260503234405 20 230 6.4 16.1 0.00 0.00 0.00 28 1006.8
20260503233903 20 229 8.0 14.5 0.00 0.00 0.00 27 1007.0
20260503233359 20 231 1.6 14.5 0.00 0.00 0.00 27 1006.8
20260503232855 20 162 6.4 11.3 0.00 0.00 0.00 28 1006.9
20260503232353 20 231 8.0 11.3 0.00 0.00 0.00 27 1007.0
20260503231851 20 244 9.7 14.5 0.00 0.00 0.00 27 1007.3
20260503231347 20 229 4.8 14.5 0.00 0.00 0.00 27 1007.1
20260503230843 20 259 3.2 12.9 0.00 0.00 0.00 26 1007.0
20260503230340 20 197 3.2 14.5 0.00 0.00 0.00 26 1007.1
20260503225839 20 259 6.4 9.7 0.00 0.00 0.00 26 1007.2
20260503225334 20 232 8.0 24.1 0.00 0.00 0.00 26 1007.2
20260503224830 20 217 14.5 20.9 0.00 0.00 0.00 27 1007.2
20260503224328 20 231 6.4 11.3 0.00 0.00 0.00 27 1007.1
20260503223826 21 155 6.4 11.3 0.00 0.00 0.00 26 1007.3
20260503223323 21 129 1.6 3.2 0.00 0.00 0.00 26 1007.3
20260503222818 21 266 3.2 8.0 0.00 0.00 0.00 27 1007.3
20260503222317 20 232 8.0 11.3 0.00 0.00 0.00 27 1007.5
20260503221815 20 160 1.6 16.1 0.00 0.00 0.00 27 1007.2
20260503221313 20 184 6.4 17.7 0.00 0.00 0.00 26 1007.5
20260503220809 21 226 8.0 20.9 0.00 0.00 0.00 26 1007.5
20260503220306 20 215 9.7 14.5 0.00 0.00 0.00 26 1007.5
20260503215803 20 235 4.8 12.9 0.00 0.00 0.00 27 1007.5
20260503215259 20 255 11.3 16.1 0.00 0.00 0.00 26 1007.6
20260503214757 20 158 1.6 12.9 0.00 0.00 0.00 26 1007.7
20260503214254 20 244 3.2 22.5 0.00 0.00 0.00 26 1007.8
20260503213752 21 267 4.8 9.7 0.00 0.00 0.00 25 1007.6
20260503213249 20 218 1.6 12.9 0.00 0.00 0.00 25 1007.5
20260503212746 20 246 6.4 20.9 0.00 0.00 0.00 27 1007.7
20260503212244 20 205 12.9 20.9 0.00 0.00 0.00 25 1007.4
20260503211741 20 176 1.6 12.9 0.00 0.00 0.00 26 1007.4
20260503211238 20 242 12.9 17.7 0.00 0.00 0.00 26 1007.8
20260503210733 20 199 8.0 20.9 0.00 0.00 0.00 26 1007.8
20260503210231 21 190 0.0 11.3 0.00 0.00 0.00 29 1007.8
20260503205726 20 172 3.2 14.5 0.00 0.00 0.00 26 1008.0
20260503205222 20 92 3.2 16.1 0.00 0.00 0.00 25 1007.8
20260503204718 21 215 9.7 12.9 0.00 0.00 0.00 26 1007.7
20260503204217 20 266 3.2 9.7 0.00 0.00 0.00 30 1007.8
20260503203713 20 152 6.4 22.5 0.00 0.00 0.00 29 1007.8
20260503203211 20 276 8.0 14.5 0.00 0.00 0.00 29 1007.9
20260503202708 20 196 4.8 14.5 0.00 0.00 0.00 28 1007.7
20260503202206 20 153 3.2 11.3 0.00 0.00 0.00 30 1008.0
20260503201704 20 204 3.2 20.9 0.00 0.00 0.00 32 1008.1
20260503201201 20 247 9.7 20.9 0.00 0.00 0.00 31 1008.0
20260503200657 20 248 4.8 20.9 0.00 0.00 0.00 29 1008.0
20260503200153 20 216 9.7 24.1 0.00 0.00 0.00 31 1008.1
20260503195650 20 237 4.8 17.7 0.00 0.00 0.00 30 1008.1
20260503195147 20 253 12.9 20.9 0.00 0.00 0.00 30 1008.1
20260503194644 20 203 14.5 27.4 0.00 0.00 0.00 30 1008.2
20260503194140 20 231 4.8 16.1 0.00 0.00 0.00 33 1008.1
20260503193637 21 238 9.7 12.9 0.00 0.00 0.00 31 1008.2
20260503193132 20 161 8.0 14.5 0.00 0.00 0.00 32 1008.3
20260503192628 20 192 3.2 16.1 0.00 0.00 0.00 33 1008.2
20260503192124 20 193 6.4 14.5 0.00 0.00 0.00 35 1008.2
20260503191621 20 264 9.7 22.5 0.00 0.00 0.00 34 1008.2
20260503191118 20 150 9.7 16.1 0.00 0.00 0.00 33 1008.3
20260503190615 20 188 4.8 11.3 0.00 0.00 0.00 36 1008.2
20260503190112 20 188 3.2 4.8 0.00 0.00 0.00 35 1008.4
20260503185608 20 292 8.0 16.1 0.00 0.00 0.00 34 1008.3
20260503185108 20 229 11.3 17.7 0.00 0.00 0.00 33 1008.7
20260503184604 20 240 20.9 24.1 0.00 0.00 0.00 34 1008.6
20260503184101 20 177 9.7 14.5 0.00 0.00 0.00 37 1008.6
20260503183557 20 208 6.4 14.5 0.00 0.00 0.00 39 1008.6
20260503183055 20 246 9.7 14.5 0.00 0.00 0.00 39 1008.8
20260503182553 20 200 11.3 12.9 0.00 0.00 0.00 39 1008.6
20260503182051 20 247 6.4 12.9 0.00 0.00 0.00 38 1008.4
20260503181547 20 167 1.6 9.7 0.00 0.00 0.00 38 1008.8
20260503181044 20 237 8.0 9.7 0.00 0.00 0.00 37 1008.8
20260503180541 20 141 3.2 8.0 0.00 0.00 0.00 38 1008.9
20260503180038 19 205 4.8 11.3 0.00 0.00 0.00 38 1008.8
20260503175536 20 303 12.9 17.7 0.00 0.00 0.00 39 1008.9
20260503175033 20 311 12.9 16.1 0.00 0.00 0.00 39 1008.9
20260503174530 20 253 3.2 8.0 0.00 0.00 0.00 41 1008.9
20260503174026 20 291 8.0 11.3 0.00 0.00 0.00 41 1008.8
20260503173521 20 160 9.7 14.5 0.00 0.00 0.00 41 1008.8
20260503173017 20 215 6.4 11.3 0.00 0.00 0.00 42 1009.0
20260503172516 19 169 4.8 22.5 0.00 0.00 0.00 41 1009.0
20260503172012 19 34 3.2 16.1 0.00 0.00 0.00 41 1008.9
20260503171509 19 225 12.9 20.9 0.00 0.00 0.00 41 1009.0
20260503171006 19 262 12.9 16.1 0.00 0.00 0.00 41 1009.0
20260503170503 18 286 6.4 9.7 0.00 0.00 0.00 41 1009.1
20260503150855 16 276 4.8 17.7 0.00 0.00 0.00 48 1008.7
20260503150351 16 284 9.7 17.7 0.00 0.00 0.00 48 1008.8
20260503140315 15 210 6.4 11.3 0.00 0.00 0.00 51 1008.4
20260503131245 13 203 6.4 9.7 0.00 0.00 0.00 53 1008.0
20260503130742 13 226 8.0 9.7 0.00 0.00 0.00 53 1007.9
20260503130239 13 256 1.6 4.8 0.00 0.00 0.00 53 1008.1
20260503120205 12 80 0.0 1.6 0.00 0.00 0.00 55 1007.5
20260503110633 11 112 1.6 4.8 0.00 0.00 0.00 56 1006.9
20260503110130 11 148 1.6 8.0 0.00 0.00 0.00 55 1007.0
20260503081434 13 65 1.6 1.6 0.00 0.00 0.00 57 1008.1
20260503080931 13 97 1.6 4.8 0.00 0.00 0.00 56 1007.9
20260503080428 13 112 3.2 3.2 0.00 0.00 0.00 56 1008.0
20260503072904 13 125 3.2 11.3 0.00 0.00 0.00 55 1008.4
20260503072401 13 72 3.2 11.3 0.00 0.00 0.00 55 1008.7
20260503071858 13 102 1.6 8.0 0.00 0.00 0.00 56 1008.8
20260503071355 13 106 1.6 9.7 0.00 0.00 0.00 56 1008.9
20260503070851 13 139 3.2 4.8 0.00 0.00 0.00 56 1008.9
20260503070349 13 106 1.6 8.0 0.00 0.00 0.00 56 1009.0